| time (UTC) | temp F | wind direction | speed MPH | gust MPH | rain 1hr in | rain 24hr in | rain mn in | humidity % | barometer mb |
| 20260503210021 | 84 | 223 | 6.0 | 13.0 | 0.00 | 0.00 | 0.00 | 29 | 1017.3 |
| 20260503205518 | 85 | 223 | 4.0 | 13.0 | 0.00 | 0.00 | 0.00 | 28 | 1017.3 |
| 20260503205036 | 84 | 217 | 5.0 | 12.0 | 0.00 | 0.00 | 0.00 | 28 | 1017.4 |
| 20260503204532 | 85 | 222 | 5.0 | 15.0 | 0.00 | 0.00 | 0.00 | 28 | 1017.6 |
| 20260503204028 | 84 | 219 | 4.0 | 11.0 | 0.00 | 0.00 | 0.00 | 28 | 1017.5 |
| 20260503203525 | 84 | 218 | 6.0 | 18.0 | 0.00 | 0.00 | 0.00 | 28 | 1017.7 |
| 20260503203023 | 83 | 224 | 6.0 | 15.0 | 0.00 | 0.00 | 0.00 | 30 | 1017.7 |
| 20260503202520 | 84 | 225 | 5.0 | 11.0 | 0.00 | 0.00 | 0.00 | 29 | 1017.7 |
| 20260503202018 | 85 | 199 | 4.0 | 9.0 | 0.00 | 0.00 | 0.00 | 29 | 1017.8 |
| 20260503201535 | 84 | 218 | 5.0 | 13.0 | 0.00 | 0.00 | 0.00 | 30 | 1017.9 |
| 20260503201031 | 84 | 218 | 5.0 | 13.0 | 0.00 | 0.00 | 0.00 | 30 | 1017.9 |
| 20260503200528 | 84 | 192 | 3.0 | 10.0 | 0.00 | 0.00 | 0.00 | 30 | 1018.0 |
| 20260503200046 | 84 | 212 | 7.0 | 14.0 | 0.00 | 0.00 | 0.00 | 30 | 1018.2 |
| 20260503195542 | 84 | 221 | 5.0 | 11.0 | 0.00 | 0.00 | 0.00 | 30 | 1018.3 |
| 20260503195019 | 83 | 213 | 6.0 | 13.0 | 0.00 | 0.00 | 0.00 | 30 | 1018.4 |
| 20260503194535 | 84 | 218 | 7.0 | 18.0 | 0.00 | 0.00 | 0.00 | 30 | 1018.3 |
| 20260503194032 | 84 | 213 | 5.0 | 11.0 | 0.00 | 0.00 | 0.00 | 29 | 1018.4 |
| 20260503193529 | 83 | 227 | 6.0 | 12.0 | 0.00 | 0.00 | 0.00 | 30 | 1018.6 |
| 20260503193047 | 84 | 217 | 5.0 | 14.0 | 0.00 | 0.00 | 0.00 | 29 | 1018.7 |
| 20260503192524 | 83 | 218 | 5.0 | 13.0 | 0.00 | 0.00 | 0.00 | 31 | 1018.6 |
| 20260503192021 | 83 | 197 | 5.0 | 13.0 | 0.00 | 0.00 | 0.00 | 31 | 1018.9 |
| 20260503191538 | 83 | 213 | 7.0 | 16.0 | 0.00 | 0.00 | 0.00 | 31 | 1018.9 |
| 20260503191035 | 82 | 224 | 6.0 | 12.0 | 0.00 | 0.00 | 0.00 | 34 | 1019.0 |
| 20260503190531 | 82 | 217 | 5.0 | 10.0 | 0.00 | 0.00 | 0.00 | 32 | 1018.9 |
| 20260503190029 | 82 | 224 | 7.0 | 14.0 | 0.00 | 0.00 | 0.00 | 32 | 1019.1 |
| 20260503185525 | 82 | 218 | 5.0 | 13.0 | 0.00 | 0.00 | 0.00 | 34 | 1019.2 |
| 20260503185022 | 81 | 243 | 6.0 | 15.0 | 0.00 | 0.00 | 0.00 | 36 | 1019.3 |
| 20260503184518 | 81 | 226 | 4.0 | 11.0 | 0.00 | 0.00 | 0.00 | 37 | 1019.4 |
| 20260503184035 | 81 | 240 | 4.0 | 11.0 | 0.00 | 0.00 | 0.00 | 37 | 1019.3 |
| 20260503183532 | 81 | 234 | 6.0 | 12.0 | 0.00 | 0.00 | 0.00 | 37 | 1019.4 |
| 20260503183028 | 81 | 225 | 7.0 | 14.0 | 0.00 | 0.00 | 0.00 | 38 | 1019.6 |
| 20260503182546 | 81 | 229 | 7.0 | 14.0 | 0.00 | 0.00 | 0.00 | 37 | 1019.7 |
| 20260503182022 | 81 | 217 | 6.0 | 11.0 | 0.00 | 0.00 | 0.00 | 36 | 1019.9 |
| 20260503181519 | 80 | 219 | 8.0 | 15.0 | 0.00 | 0.00 | 0.00 | 37 | 1019.9 |
| 20260503181036 | 81 | 214 | 6.0 | 12.0 | 0.00 | 0.00 | 0.00 | 36 | 1019.9 |
| 20260503180553 | 81 | 223 | 9.0 | 16.0 | 0.00 | 0.00 | 0.00 | 37 | 1020.0 |
| 20260503180030 | 81 | 218 | 6.0 | 13.0 | 0.00 | 0.00 | 0.00 | 38 | 1020.1 |
| 20260503175526 | 80 | 238 | 5.0 | 10.0 | 0.00 | 0.00 | 0.00 | 39 | 1020.2 |
| 20260503175023 | 80 | 233 | 7.0 | 12.0 | 0.00 | 0.00 | 0.00 | 38 | 1020.4 |
| 20260503174540 | 79 | 223 | 7.0 | 15.0 | 0.00 | 0.00 | 0.00 | 40 | 1020.3 |
| 20260503174017 | 79 | 218 | 7.0 | 13.0 | 0.00 | 0.00 | 0.00 | 39 | 1020.5 |
| 20260503173614 | 79 | 229 | 6.0 | 11.0 | 0.00 | 0.00 | 0.00 | 41 | 1020.6 |
| 20260503173031 | 79 | 234 | 6.0 | 10.0 | 0.00 | 0.00 | 0.00 | 40 | 1020.6 |
| 20260503172548 | 79 | 227 | 6.0 | 13.0 | 0.00 | 0.00 | 0.00 | 40 | 1020.7 |
| 20260503172044 | 79 | 230 | 6.0 | 11.0 | 0.00 | 0.00 | 0.00 | 40 | 1020.8 |
| 20260503171521 | 79 | 236 | 6.0 | 14.0 | 0.00 | 0.00 | 0.00 | 41 | 1020.8 |
| 20260503171018 | 79 | 224 | 7.0 | 17.0 | 0.00 | 0.00 | 0.00 | 41 | 1020.9 |
| 20260503170535 | 78 | 217 | 7.0 | 17.0 | 0.00 | 0.00 | 0.00 | 41 | 1021.0 |
| 20260503150520 | 71 | 222 | 7.0 | 13.0 | 0.00 | 0.00 | 0.00 | 50 | 1021.3 |
| 20260503131108 | 63 | 211 | 2.0 | 6.0 | 0.00 | 0.00 | 0.00 | 61 | 1020.9 |
| 20260503130525 | 62 | 212 | 3.0 | 7.0 | 0.00 | 0.00 | 0.00 | 61 | 1021.0 |
| 20260503110611 | 60 | 176 | 2.0 | 4.0 | 0.00 | 0.00 | 0.00 | 64 | 1019.7 |
| 20260503081523 | 62 | 194 | 2.0 | 7.0 | 0.00 | 0.00 | 0.00 | 58 | 1019.7 |
| 20260503081020 | 62 | 177 | 2.0 | 5.0 | 0.00 | 0.00 | 0.00 | 58 | 1019.6 |
| 20260503080516 | 62 | 185 | 2.0 | 4.0 | 0.00 | 0.00 | 0.00 | 58 | 1019.7 |
| 20260503072554 | 63 | 179 | 2.0 | 4.0 | 0.00 | 0.00 | 0.00 | 58 | 1020.0 |
| 20260503072030 | 63 | 209 | 2.0 | 6.0 | 0.00 | 0.00 | 0.00 | 58 | 1020.1 |
| 20260503071527 | 63 | 193 | 2.0 | 7.0 | 0.00 | 0.00 | 0.00 | 58 | 1020.1 |
| 20260503071024 | 63 | 191 | 2.0 | 5.0 | 0.00 | 0.00 | 0.00 | 58 | 1020.1 |
| 20260503070520 | 63 | 206 | 2.0 | 5.0 | 0.00 | 0.00 | 0.00 | 58 | 1020.2 |
| 20260503055032 | 65 | 208 | 3.0 | 5.0 | 0.00 | 0.00 | 0.00 | 54 | 1019.9 |
| 20260503054529 | 64 | 196 | 3.0 | 6.0 | 0.00 | 0.00 | 0.00 | 55 | 1019.9 |
| 20260503054047 | 65 | 196 | 1.0 | 3.0 | 0.00 | 0.00 | 0.00 | 56 | 1019.8 |
| 20260503053544 | 65 | 180 | 2.0 | 4.0 | 0.00 | 0.00 | 0.00 | 55 | 1020.0 |
| 20260503053020 | 65 | 192 | 1.0 | 4.0 | 0.00 | 0.00 | 0.00 | 55 | 1019.8 |
| 20260503052517 | 65 | 202 | 2.0 | 4.0 | 0.00 | 0.00 | 0.00 | 54 | 1019.9 |
| 20260503052034 | 65 | 195 | 2.0 | 4.0 | 0.00 | 0.00 | 0.00 | 54 | 1019.8 |
| 20260503051530 | 65 | 197 | 2.0 | 4.0 | 0.00 | 0.00 | 0.00 | 54 | 1019.8 |
| 20260503051026 | 66 | 193 | 2.0 | 4.0 | 0.00 | 0.00 | 0.00 | 54 | 1019.8 |
| 20260503050522 | 66 | 200 | 2.0 | 4.0 | 0.00 | 0.00 | 0.00 | 53 | 1019.6 |
| 20260503050019 | 66 | 181 | 1.0 | 3.0 | 0.00 | 0.00 | 0.00 | 53 | 1019.7 |
| 20260503045535 | 66 | 193 | 2.0 | 4.0 | 0.00 | 0.00 | 0.00 | 53 | 1019.7 |
| 20260503045132 | 66 | 192 | 2.0 | 4.0 | 0.00 | 0.00 | 0.00 | 53 | 1019.7 |
| 20260503044529 | 65 | 209 | 2.0 | 4.0 | 0.00 | 0.00 | 0.00 | 54 | 1019.6 |
| 20260503044026 | 65 | 182 | 1.0 | 3.0 | 0.00 | 0.00 | 0.00 | 55 | 1019.6 |
| 20260503043523 | 65 | 152 | 0.0 | 3.0 | 0.00 | 0.00 | 0.00 | 55 | 1019.7 |
| 20260503043020 | 66 | 164 | 1.0 | 3.0 | 0.00 | 0.00 | 0.00 | 54 | 1019.7 |
| 20260503042537 | 66 | 176 | 1.0 | 3.0 | 0.00 | 0.00 | 0.00 | 53 | 1019.7 |
| 20260503042034 | 66 | 173 | 1.0 | 2.0 | 0.00 | 0.00 | 0.00 | 52 | 1019.7 |
| 20260503041531 | 67 | 184 | 1.0 | 2.0 | 0.00 | 0.00 | 0.00 | 52 | 1019.7 |
| 20260503041048 | 67 | 176 | 1.0 | 4.0 | 0.00 | 0.00 | 0.00 | 51 | 1019.7 |
| 20260503040544 | 67 | 187 | 1.0 | 2.0 | 0.00 | 0.00 | 0.00 | 51 | 1019.8 |
| 20260503040021 | 67 | 185 | 1.0 | 2.0 | 0.00 | 0.00 | 0.00 | 51 | 1019.8 |
| 20260503035517 | 67 | 200 | 1.0 | 2.0 | 0.00 | 0.00 | 0.00 | 51 | 1019.7 |
| 20260503035055 | 68 | 210 | 1.0 | 3.0 | 0.00 | 0.00 | 0.00 | 50 | 1019.8 |
| 20260503034532 | 68 | 162 | 1.0 | 3.0 | 0.00 | 0.00 | 0.00 | 50 | 1019.7 |
| 20260503034028 | 68 | 206 | 1.0 | 3.0 | 0.00 | 0.00 | 0.00 | 50 | 1019.8 |
| 20260503033525 | 68 | 190 | 1.0 | 2.0 | 0.00 | 0.00 | 0.00 | 50 | 1019.8 |
| 20260503033022 | 68 | 220 | 1.0 | 2.0 | 0.00 | 0.00 | 0.00 | 50 | 1019.8 |
| 20260503032519 | 68 | 210 | 1.0 | 3.0 | 0.00 | 0.00 | 0.00 | 50 | 1019.7 |
| 20260503032036 | 68 | 168 | 1.0 | 3.0 | 0.00 | 0.00 | 0.00 | 50 | 1019.7 |
| 20260503031532 | 68 | 164 | 0.0 | 2.0 | 0.00 | 0.00 | 0.00 | 50 | 1019.7 |
| 20260503031029 | 68 | 180 | 0.0 | 2.0 | 0.00 | 0.00 | 0.00 | 50 | 1019.5 |
| 20260503030525 | 68 | 149 | 0.0 | 2.0 | 0.00 | 0.00 | 0.00 | 49 | 1019.4 |
| 20260503030043 | 69 | 156 | 0.0 | 2.0 | 0.00 | 0.00 | 0.00 | 49 | 1019.5 |
| 20260503025519 | 69 | 151 | 0.0 | 2.0 | 0.00 | 0.00 | 0.00 | 48 | 1019.4 |
| 20260503025016 | 69 | 257 | 1.0 | 2.0 | 0.00 | 0.00 | 0.00 | 48 | 1019.4 |
| 20260503024553 | 69 | 146 | 1.0 | 2.0 | 0.00 | 0.00 | 0.00 | 48 | 1019.4 |
| 20260503024030 | 69 | 152 | 0.0 | 2.0 | 0.00 | 0.00 | 0.00 | 48 | 1019.5 |
| 20260503023526 | 69 | 105 | 1.0 | 3.0 | 0.00 | 0.00 | 0.00 | 47 | 1019.3 |
| 20260503023023 | 69 | 80 | 0.0 | 2.0 | 0.00 | 0.00 | 0.00 | 47 | 1019.2 |
| 20260503022520 | 69 | 172 | 0.0 | 2.0 | 0.00 | 0.00 | 0.00 | 47 | 1019.2 |
| 20260503022017 | 70 | 235 | 0.0 | 1.0 | 0.00 | 0.00 | 0.00 | 47 | 1019.1 |
| 20260503021534 | 70 | 216 | 0.0 | 2.0 | 0.00 | 0.00 | 0.00 | 46 | 1019.1 |
| 20260503021030 | 70 | 171 | 0.0 | 2.0 | 0.00 | 0.00 | 0.00 | 46 | 1019.1 |
| 20260503020526 | 70 | 242 | 0.0 | 2.0 | 0.00 | 0.00 | 0.00 | 46 | 1019.1 |
| 20260503020024 | 70 | 18 | 0.0 | 2.0 | 0.00 | 0.00 | 0.00 | 46 | 1019.0 |
| 20260503015541 | 71 | 34 | 0.0 | 1.0 | 0.00 | 0.00 | 0.00 | 45 | 1019.0 |
| 20260503015018 | 71 | 0.0 | 1.0 | 0.00 | 0.00 | 0.00 | 45 | 1019.1 | |
| 20260503014534 | 71 | 95 | 0.0 | 2.0 | 0.00 | 0.00 | 0.00 | 44 | 1019.1 |
| 20260503014032 | 72 | 223 | 0.0 | 2.0 | 0.00 | 0.00 | 0.00 | 43 | 1019.1 |
| 20260503013528 | 72 | 229 | 1.0 | 3.0 | 0.00 | 0.00 | 0.00 | 43 | 1018.9 |
| 20260503013025 | 72 | 207 | 0.0 | 2.0 | 0.00 | 0.00 | 0.00 | 43 | 1019.0 |
| 20260503012521 | 73 | 215 | 1.0 | 3.0 | 0.00 | 0.00 | 0.00 | 42 | 1019.0 |
| 20260503012018 | 73 | 208 | 1.0 | 2.0 | 0.00 | 0.00 | 0.00 | 42 | 1019.0 |
| 20260503011536 | 73 | 223 | 2.0 | 4.0 | 0.00 | 0.00 | 0.00 | 41 | 1018.9 |
| 20260503011052 | 74 | 227 | 2.0 | 4.0 | 0.00 | 0.00 | 0.00 | 41 | 1019.0 |
| 20260503010529 | 74 | 210 | 1.0 | 4.0 | 0.00 | 0.00 | 0.00 | 41 | 1018.9 |
| 20260503010026 | 74 | 212 | 2.0 | 4.0 | 0.00 | 0.00 | 0.00 | 40 | 1018.9 |
| 20260503005522 | 75 | 219 | 2.0 | 5.0 | 0.00 | 0.00 | 0.00 | 40 | 1018.9 |
| 20260503005019 | 75 | 228 | 2.0 | 4.0 | 0.00 | 0.00 | 0.00 | 40 | 1018.8 |
| 20260503004516 | 75 | 223 | 2.0 | 5.0 | 0.00 | 0.00 | 0.00 | 40 | 1018.8 |
| 20260503004033 | 75 | 229 | 2.0 | 4.0 | 0.00 | 0.00 | 0.00 | 40 | 1018.8 |
| 20260503003530 | 76 | 231 | 3.0 | 7.0 | 0.00 | 0.00 | 0.00 | 39 | 1018.8 |
| 20260503003027 | 76 | 222 | 2.0 | 5.0 | 0.00 | 0.00 | 0.00 | 38 | 1018.9 |
| 20260503002545 | 77 | 267 | 2.0 | 3.0 | 0.00 | 0.00 | 0.00 | 37 | 1018.8 |
| 20260503002042 | 77 | 244 | 2.0 | 4.0 | 0.00 | 0.00 | 0.00 | 36 | 1018.7 |
| 20260503001519 | 77 | 259 | 3.0 | 6.0 | 0.00 | 0.00 | 0.00 | 36 | 1018.9 |
| 20260503001017 | 77 | 244 | 2.0 | 4.0 | 0.00 | 0.00 | 0.00 | 37 | 1018.7 |
| 20260503000534 | 77 | 260 | 3.0 | 4.0 | 0.00 | 0.00 | 0.00 | 37 | 1018.8 |
| 20260503000052 | 77 | 266 | 3.0 | 7.0 | 0.00 | 0.00 | 0.00 | 37 | 1018.9 |
| 20260502235549 | 77 | 253 | 4.0 | 6.0 | 0.00 | 0.00 | 0.00 | 36 | 1019.0 |
| 20260502235025 | 78 | 245 | 3.0 | 5.0 | 0.00 | 0.00 | 0.00 | 36 | 1019.0 |
| 20260502234522 | 78 | 266 | 2.0 | 5.0 | 0.00 | 0.00 | 0.00 | 36 | 1018.9 |
| 20260502234019 | 78 | 233 | 3.0 | 6.0 | 0.00 | 0.00 | 0.00 | 36 | 1019.1 |
| 20260502233516 | 78 | 295 | 2.0 | 5.0 | 0.00 | 0.00 | 0.00 | 36 | 1019.0 |
| 20260502233031 | 78 | 311 | 2.0 | 5.0 | 0.00 | 0.00 | 0.00 | 37 | 1019.1 |
| 20260502232528 | 77 | 318 | 2.0 | 4.0 | 0.00 | 0.00 | 0.00 | 37 | 1019.0 |
| 20260502232026 | 78 | 352 | 2.0 | 4.0 | 0.00 | 0.00 | 0.00 | 37 | 1019.1 |
| 20260502231523 | 78 | 309 | 2.0 | 4.0 | 0.00 | 0.00 | 0.00 | 35 | 1019.1 |
| 20260502231021 | 78 | 306 | 2.0 | 5.0 | 0.00 | 0.00 | 0.00 | 35 | 1019.2 |
| 20260502230518 | 78 | 237 | 2.0 | 6.0 | 0.00 | 0.00 | 0.00 | 34 | 1019.2 |
| 20260502230035 | 78 | 253 | 3.0 | 9.0 | 0.00 | 0.00 | 0.00 | 34 | 1019.2 |
| 20260502225532 | 78 | 240 | 4.0 | 8.0 | 0.00 | 0.00 | 0.00 | 34 | 1019.2 |
| 20260502225029 | 79 | 286 | 3.0 | 6.0 | 0.00 | 0.00 | 0.00 | 35 | 1019.2 |
| 20260502224526 | 79 | 240 | 4.0 | 8.0 | 0.00 | 0.00 | 0.00 | 34 | 1019.2 |
| 20260502224022 | 78 | 265 | 2.0 | 4.0 | 0.00 | 0.00 | 0.00 | 34 | 1019.0 |
| 20260502223539 | 78 | 288 | 3.0 | 6.0 | 0.00 | 0.00 | 0.00 | 34 | 1019.3 |
| 20260502223037 | 78 | 303 | 4.0 | 6.0 | 0.00 | 0.00 | 0.00 | 35 | 1019.3 |
| 20260502222534 | 79 | 275 | 3.0 | 6.0 | 0.00 | 0.00 | 0.00 | 35 | 1019.2 |
| 20260502222030 | 79 | 251 | 3.0 | 5.0 | 0.00 | 0.00 | 0.00 | 35 | 1019.3 |
| 20260502221527 | 78 | 262 | 3.0 | 6.0 | 0.00 | 0.00 | 0.00 | 35 | 1019.4 |
| 20260502221025 | 79 | 290 | 3.0 | 7.0 | 0.00 | 0.00 | 0.00 | 36 | 1019.3 |
| 20260502220522 | 79 | 274 | 3.0 | 7.0 | 0.00 | 0.00 | 0.00 | 37 | 1019.4 |
| 20260502220019 | 79 | 227 | 4.0 | 11.0 | 0.00 | 0.00 | 0.00 | 35 | 1019.6 |
| 20260502215517 | 78 | 237 | 3.0 | 7.0 | 0.00 | 0.00 | 0.00 | 34 | 1019.4 |
| 20260502215033 | 78 | 265 | 4.0 | 8.0 | 0.00 | 0.00 | 0.00 | 35 | 1019.5 |
| 20260502214530 | 78 | 267 | 4.0 | 7.0 | 0.00 | 0.00 | 0.00 | 35 | 1019.5 |
| 20260502214027 | 77 | 91 | 3.0 | 6.0 | 0.00 | 0.00 | 0.00 | 35 | 1019.5 |
| 20260502213523 | 78 | 290 | 4.0 | 8.0 | 0.00 | 0.00 | 0.00 | 35 | 1019.7 |
| 20260502213021 | 79 | 247 | 3.0 | 8.0 | 0.00 | 0.00 | 0.00 | 35 | 1019.7 |
| 20260502212518 | 79 | 250 | 4.0 | 9.0 | 0.00 | 0.00 | 0.00 | 35 | 1019.7 |
| 20260502212034 | 78 | 295 | 2.0 | 10.0 | 0.00 | 0.00 | 0.00 | 35 | 1019.8 |
| 20260502211531 | 78 | 267 | 4.0 | 8.0 | 0.00 | 0.00 | 0.00 | 34 | 1019.9 |
| 20260502211029 | 78 | 323 | 1.0 | 5.0 | 0.00 | 0.00 | 0.00 | 35 | 1019.9 |
| 20260502210526 | 78 | 337 | 2.0 | 5.0 | 0.00 | 0.00 | 0.00 | 36 | 1020.1 |